| time (UTC) | temp F | wind direction | speed MPH | gust MPH | rain 1hr in | rain 24hr in | rain mn in | humidity % | barometer mb |
| 20260508060520 | 47 | 342 | 4.0 | 11.0 | 0.00 | 0.01 | 0.00 | 95 | 1016.6 |
| 20260508060019 | 46 | 348 | 4.0 | 9.0 | 0.00 | 0.01 | 0.00 | 95 | 1016.5 |
| 20260508055518 | 46 | 323 | 4.0 | 11.0 | 0.00 | 0.04 | 0.00 | 95 | 1016.6 |
| 20260508055017 | 46 | 345 | 6.0 | 11.0 | 0.00 | 0.04 | 0.00 | 94 | 1016.6 |
| 20260508054516 | 46 | 360 | 5.0 | 11.0 | 0.00 | 0.04 | 0.00 | 95 | 1016.6 |
| 20260508054015 | 46 | 295 | 2.0 | 9.0 | 0.00 | 0.04 | 0.00 | 95 | 1016.7 |
| 20260508053516 | 46 | 339 | 0.0 | 9.0 | 0.00 | 0.04 | 0.00 | 94 | 1016.6 |
| 20260508053016 | 46 | 330 | 4.0 | 9.0 | 0.00 | 0.04 | 0.00 | 94 | 1016.5 |
| 20260508052012 | 46 | 312 | 6.0 | 11.0 | 0.00 | 0.04 | 0.00 | 94 | 1016.5 |
| 20260508051513 | 46 | 355 | 1.0 | 11.0 | 0.00 | 0.04 | 0.00 | 94 | 1016.5 |
| 20260508051012 | 46 | 330 | 2.0 | 9.0 | 0.00 | 0.04 | 0.00 | 94 | 1016.6 |
| 20260508050512 | 46 | 326 | 6.0 | 9.0 | 0.00 | 0.04 | 0.00 | 94 | 1016.5 |
| 20260508050011 | 46 | 331 | 3.0 | 12.0 | 0.00 | 0.04 | 0.00 | 94 | 1016.5 |
| 20260508045511 | 46 | 313 | 2.0 | 12.0 | 0.00 | 0.04 | 0.00 | 94 | 1016.5 |
| 20260508045011 | 46 | 315 | 3.0 | 10.0 | 0.00 | 0.04 | 0.00 | 94 | 1016.5 |
| 20260508044513 | 46 | 321 | 5.0 | 10.0 | 0.00 | 0.04 | 0.00 | 94 | 1016.4 |
| 20260508044011 | 46 | 299 | 3.0 | 9.0 | 0.00 | 0.04 | 0.00 | 94 | 1016.4 |
| 20260508043509 | 46 | 291 | 3.0 | 7.0 | 0.00 | 0.04 | 0.00 | 94 | 1016.4 |
| 20260508043009 | 46 | 303 | 2.0 | 8.0 | 0.00 | 0.04 | 0.00 | 94 | 1016.4 |
| 20260508042539 | 46 | 300 | 2.0 | 8.0 | 0.00 | 0.04 | 0.00 | 94 | 1016.4 |
| 20260508042046 | 46 | 316 | 2.0 | 9.0 | 0.00 | 0.04 | 0.00 | 93 | 1016.2 |
| 20260508041546 | 46 | 313 | 3.0 | 9.0 | 0.00 | 0.04 | 0.00 | 93 | 1016.1 |
| 20260508041045 | 46 | 355 | 0.0 | 9.0 | 0.00 | 0.04 | 0.00 | 93 | 1016.0 |
| 20260508040544 | 46 | 355 | 2.0 | 9.0 | 0.00 | 0.04 | 0.00 | 93 | 1016.0 |
| 20260508040044 | 46 | 327 | 2.0 | 6.0 | 0.00 | 0.04 | 0.00 | 93 | 1015.8 |
| 20260508035543 | 46 | 344 | 3.0 | 11.0 | 0.00 | 0.06 | 0.00 | 93 | 1015.8 |
| 20260508035044 | 46 | 336 | 5.0 | 11.0 | 0.00 | 0.06 | 0.00 | 93 | 1015.8 |
| 20260508034542 | 46 | 317 | 4.0 | 9.0 | 0.00 | 0.06 | 0.00 | 93 | 1015.8 |
| 20260508034041 | 46 | 355 | 2.0 | 9.0 | 0.00 | 0.06 | 0.00 | 93 | 1015.8 |
| 20260508033541 | 46 | 325 | 0.0 | 6.0 | 0.00 | 0.06 | 0.00 | 92 | 1015.8 |
| 20260508033041 | 46 | 10 | 0.0 | 8.0 | 0.00 | 0.06 | 0.00 | 92 | 1015.8 |
| 20260508032541 | 46 | 355 | 1.0 | 9.0 | 0.00 | 0.06 | 0.00 | 92 | 1015.8 |
| 20260508032040 | 46 | 339 | 2.0 | 9.0 | 0.00 | 0.06 | 0.00 | 92 | 1015.7 |
| 20260508031550 | 46 | 336 | 3.0 | 13.0 | 0.00 | 0.06 | 0.00 | 92 | 1015.7 |
| 20260508031040 | 46 | 355 | 3.0 | 13.0 | 0.00 | 0.06 | 0.00 | 92 | 1015.7 |
| 20260508030541 | 46 | 342 | 5.0 | 14.0 | 0.00 | 0.06 | 0.00 | 91 | 1015.7 |
| 20260508030049 | 46 | 336 | 6.0 | 14.0 | 0.00 | 0.06 | 0.00 | 91 | 1015.6 |
| 20260508025538 | 46 | 15 | 7.0 | 13.0 | 0.00 | 0.06 | 0.00 | 91 | 1015.6 |
| 20260508025037 | 46 | 320 | 7.0 | 13.0 | 0.00 | 0.06 | 0.00 | 91 | 1015.6 |
| 20260508024538 | 46 | 5 | 4.0 | 13.0 | 0.00 | 0.06 | 0.00 | 91 | 1015.5 |
| 20260508024037 | 46 | 326 | 7.0 | 13.0 | 0.00 | 0.06 | 0.00 | 90 | 1015.5 |
| 20260508023536 | 47 | 360 | 8.0 | 15.0 | 0.00 | 0.06 | 0.00 | 90 | 1015.6 |
| 20260508023041 | 47 | 5 | 4.0 | 15.0 | 0.00 | 0.06 | 0.00 | 90 | 1015.6 |
| 20260508022535 | 47 | 355 | 0.0 | 5.0 | 0.00 | 0.06 | 0.00 | 90 | 1015.6 |
| 20260508022035 | 47 | 355 | 0.0 | 11.0 | 0.00 | 0.06 | 0.00 | 90 | 1015.6 |
| 20260508021537 | 47 | 5 | 2.0 | 14.0 | 0.00 | 0.06 | 0.00 | 89 | 1015.6 |
| 20260508021033 | 47 | 318 | 6.0 | 14.0 | 0.00 | 0.06 | 0.00 | 89 | 1015.6 |
| 20260508020533 | 47 | 355 | 6.0 | 15.0 | 0.00 | 0.06 | 0.00 | 89 | 1015.5 |
| 20260508020032 | 47 | 360 | 7.0 | 15.0 | 0.00 | 0.06 | 0.00 | 89 | 1015.6 |
| 20260508015632 | 47 | 21 | 6.0 | 15.0 | 0.00 | 0.06 | 0.00 | 89 | 1015.6 |
| 20260508015031 | 47 | 337 | 7.0 | 18.0 | 0.00 | 0.06 | 0.00 | 89 | 1015.5 |
| 20260508014531 | 47 | 277 | 12.0 | 18.0 | 0.00 | 0.06 | 0.00 | 88 | 1015.6 |
| 20260508014031 | 47 | 360 | 5.0 | 9.0 | 0.00 | 0.06 | 0.00 | 88 | 1015.5 |
| 20260508013530 | 47 | 348 | 2.0 | 13.0 | 0.00 | 0.06 | 0.00 | 88 | 1015.5 |
| 20260508013030 | 47 | 25 | 5.0 | 15.0 | 0.00 | 0.06 | 0.00 | 88 | 1015.6 |
| 20260508012529 | 47 | 317 | 8.0 | 19.0 | 0.00 | 0.06 | 0.00 | 88 | 1015.5 |
| 20260508012028 | 47 | 355 | 9.0 | 18.0 | 0.00 | 0.06 | 0.00 | 88 | 1015.6 |
| 20260508011529 | 47 | 355 | 2.0 | 14.0 | 0.00 | 0.06 | 0.00 | 88 | 1015.6 |
| 20260508011027 | 48 | 360 | 8.0 | 13.0 | 0.00 | 0.06 | 0.00 | 88 | 1015.6 |
| 20260508010526 | 48 | 346 | 2.0 | 13.0 | 0.00 | 0.06 | 0.00 | 88 | 1015.7 |
| 20260508010028 | 48 | 355 | 6.0 | 13.0 | 0.00 | 0.06 | 0.00 | 88 | 1015.7 |
| 20260508005526 | 48 | 342 | 7.0 | 13.0 | 0.00 | 0.06 | 0.00 | 88 | 1015.7 |
| 20260508005025 | 48 | 340 | 4.0 | 19.0 | 0.00 | 0.06 | 0.00 | 88 | 1015.7 |
| 20260508004528 | 48 | 5 | 9.0 | 21.0 | 0.00 | 0.06 | 0.00 | 88 | 1015.7 |
| 20260508004024 | 48 | 360 | 9.0 | 18.0 | 0.00 | 0.06 | 0.00 | 88 | 1015.7 |
| 20260508003523 | 48 | 338 | 10.0 | 18.0 | 0.00 | 0.06 | 0.00 | 88 | 1015.5 |
| 20260508003022 | 48 | 308 | 10.0 | 18.0 | 0.00 | 0.06 | 0.00 | 88 | 1015.5 |
| 20260508002521 | 48 | 316 | 12.0 | 23.0 | 0.00 | 0.06 | 0.00 | 88 | 1015.4 |
| 20260508002020 | 48 | 344 | 12.0 | 23.0 | 0.00 | 0.06 | 0.00 | 88 | 1015.2 |
| 20260508001519 | 48 | 343 | 10.0 | 17.0 | 0.00 | 0.06 | 0.00 | 88 | 1015.4 |
| 20260508001018 | 48 | 344 | 2.0 | 17.0 | 0.00 | 0.06 | 0.00 | 88 | 1015.4 |
| 20260508000521 | 49 | 5 | 5.0 | 17.0 | 0.00 | 0.06 | 0.00 | 88 | 1015.3 |
| 20260508000016 | 49 | 5 | 7.0 | 15.0 | 0.00 | 0.06 | 0.00 | 88 | 1015.3 |
| 20260507235517 | 49 | 360 | 6.0 | 17.0 | 0.00 | 0.06 | 0.00 | 88 | 1015.3 |
| 20260507235115 | 49 | 340 | 11.0 | 17.0 | 0.00 | 0.06 | 0.00 | 88 | 1015.3 |
| 20260507234514 | 49 | 5 | 6.0 | 15.0 | 0.00 | 0.06 | 0.00 | 88 | 1015.3 |
| 20260507234016 | 49 | 355 | 4.0 | 18.0 | 0.00 | 0.06 | 0.00 | 88 | 1015.2 |
| 20260507233515 | 49 | 343 | 11.0 | 19.0 | 0.00 | 0.06 | 0.00 | 88 | 1015.3 |
| 20260507233014 | 49 | 333 | 10.0 | 20.0 | 0.00 | 0.06 | 0.00 | 88 | 1015.2 |
| 20260507232512 | 49 | 329 | 9.0 | 16.0 | 0.00 | 0.06 | 0.00 | 88 | 1015.2 |
| 20260507232010 | 49 | 331 | 5.0 | 13.0 | 0.00 | 0.06 | 0.00 | 88 | 1015.2 |
| 20260507231516 | 49 | 9 | 4.0 | 15.0 | 0.00 | 0.06 | 0.00 | 88 | 1015.1 |
| 20260507231010 | 49 | 331 | 7.0 | 15.0 | 0.00 | 0.06 | 0.00 | 88 | 1015.1 |
| 20260507230510 | 49 | 327 | 6.0 | 14.0 | 0.00 | 0.06 | 0.00 | 88 | 1015.2 |
| 20260507230009 | 49 | 350 | 3.0 | 14.0 | 0.00 | 0.06 | 0.00 | 88 | 1015.2 |
| 20260507225512 | 49 | 355 | 4.0 | 14.0 | 0.00 | 0.08 | 0.00 | 88 | 1015.1 |
| 20260507225010 | 49 | 360 | 8.0 | 15.0 | 0.00 | 0.08 | 0.00 | 88 | 1015.0 |
| 20260507224508 | 49 | 9 | 6.0 | 17.0 | 0.00 | 0.08 | 0.00 | 88 | 1015.0 |
| 20260507224107 | 49 | 360 | 8.0 | 17.0 | 0.00 | 0.08 | 0.00 | 88 | 1015.0 |
| 20260507223508 | 49 | 360 | 6.0 | 13.0 | 0.00 | 0.08 | 0.00 | 89 | 1015.1 |
| 20260507223007 | 49 | 17 | 3.0 | 12.0 | 0.00 | 0.08 | 0.00 | 89 | 1015.1 |
| 20260507222605 | 49 | 11 | 5.0 | 12.0 | 0.00 | 0.08 | 0.00 | 89 | 1015.1 |
| 20260507222007 | 49 | 9 | 5.0 | 15.0 | 0.00 | 0.08 | 0.00 | 89 | 1014.9 |
| 20260507221506 | 49 | 5 | 8.0 | 15.0 | 0.00 | 0.08 | 0.00 | 89 | 1014.9 |
| 20260507221001 | 49 | 315 | 8.0 | 15.0 | 0.00 | 0.08 | 0.00 | 89 | 1014.8 |
| 20260507220600 | 49 | 355 | 2.0 | 11.0 | 0.00 | 0.08 | 0.00 | 90 | 1014.8 |
| 20260507220502 | 49 | 355 | 4.0 | 16.0 | 0.00 | 0.08 | 0.00 | 90 | 1014.7 |
| 20260507220059 | 49 | 360 | 4.0 | 16.0 | 0.00 | 0.08 | 0.00 | 90 | 1014.8 |
| 20260507215559 | 49 | 350 | 9.0 | 16.0 | 0.00 | 0.14 | 0.08 | 90 | 1014.7 |
| 20260507215100 | 49 | 323 | 6.0 | 16.0 | 0.00 | 0.14 | 0.08 | 90 | 1014.7 |
| 20260507214657 | 49 | 339 | 6.0 | 15.0 | 0.00 | 0.14 | 0.08 | 90 | 1014.8 |
| 20260507214057 | 49 | 5 | 8.0 | 14.0 | 0.00 | 0.14 | 0.08 | 90 | 1014.7 |
| 20260507213557 | 50 | 320 | 5.0 | 14.0 | 0.00 | 0.14 | 0.08 | 90 | 1014.7 |
| 20260507213101 | 50 | 334 | 5.0 | 11.0 | 0.00 | 0.14 | 0.08 | 90 | 1014.7 |
| 20260507212556 | 50 | 30 | 1.0 | 15.0 | 0.00 | 0.14 | 0.08 | 90 | 1014.7 |
| 20260507212054 | 50 | 19 | 5.0 | 13.0 | 0.00 | 0.14 | 0.08 | 90 | 1014.6 |
| 20260507211558 | 50 | 360 | 3.0 | 14.0 | 0.00 | 0.14 | 0.08 | 90 | 1014.7 |
| 20260507211053 | 50 | 355 | 7.0 | 14.0 | 0.00 | 0.14 | 0.08 | 90 | 1014.7 |
| 20260507210553 | 50 | 344 | 6.0 | 11.0 | 0.00 | 0.14 | 0.08 | 90 | 1014.7 |
| 20260507210053 | 50 | 5 | 5.0 | 11.0 | 0.00 | 0.14 | 0.08 | 91 | 1014.8 |
| 20260507205553 | 50 | 19 | 5.0 | 11.0 | 0.00 | 0.14 | 0.08 | 90 | 1014.9 |
| 20260507205057 | 50 | 58 | 3.0 | 14.0 | 0.00 | 0.14 | 0.08 | 91 | 1014.9 |
| 20260507204557 | 50 | 343 | 8.0 | 14.0 | 0.00 | 0.14 | 0.08 | 90 | 1014.8 |
| 20260507204054 | 50 | 346 | 6.0 | 13.0 | 0.00 | 0.14 | 0.08 | 90 | 1014.7 |
| 20260507203551 | 50 | 339 | 6.0 | 14.0 | 0.00 | 0.14 | 0.08 | 90 | 1014.7 |
| 20260507203049 | 50 | 327 | 9.0 | 14.0 | 0.00 | 0.14 | 0.08 | 90 | 1014.5 |
| 20260507202549 | 50 | 333 | 4.0 | 13.0 | 0.00 | 0.14 | 0.08 | 90 | 1014.5 |
| 20260507202049 | 50 | 335 | 4.0 | 13.0 | 0.00 | 0.14 | 0.08 | 90 | 1014.5 |
| 20260507201555 | 50 | 5 | 6.0 | 13.0 | 0.00 | 0.14 | 0.08 | 90 | 1014.5 |
| 20260507201048 | 50 | 355 | 4.0 | 11.0 | 0.00 | 0.14 | 0.08 | 90 | 1014.5 |
| 20260507200547 | 50 | 311 | 2.0 | 8.0 | 0.00 | 0.14 | 0.08 | 90 | 1014.5 |
| 20260507200051 | 50 | 329 | 0.0 | 13.0 | 0.00 | 0.14 | 0.08 | 90 | 1014.4 |
| 20260507195547 | 50 | 355 | 4.0 | 13.0 | 0.00 | 0.14 | 0.08 | 90 | 1014.3 |
| 20260507195045 | 51 | 360 | 3.0 | 9.0 | 0.00 | 0.14 | 0.08 | 90 | 1014.2 |
| 20260507194550 | 51 | 351 | 1.0 | 15.0 | 0.00 | 0.14 | 0.08 | 90 | 1014.2 |
| 20260507194147 | 51 | 5 | 8.0 | 15.0 | 0.00 | 0.14 | 0.08 | 90 | 1014.1 |
| 20260507193543 | 50 | 347 | 4.0 | 9.0 | 0.00 | 0.14 | 0.08 | 90 | 1014.1 |
| 20260507193043 | 50 | 5 | 3.0 | 15.0 | 0.00 | 0.14 | 0.08 | 90 | 1014.1 |
| 20260507192543 | 51 | 355 | 10.0 | 15.0 | 0.00 | 0.14 | 0.08 | 90 | 1014.0 |
| 20260507192043 | 50 | 355 | 5.0 | 13.0 | 0.00 | 0.14 | 0.08 | 90 | 1014.0 |
| 20260507191552 | 51 | 5 | 5.0 | 16.0 | 0.00 | 0.14 | 0.08 | 90 | 1014.1 |
| 20260507191041 | 51 | 327 | 8.0 | 16.0 | 0.00 | 0.14 | 0.08 | 89 | 1014.1 |
| 20260507190541 | 51 | 17 | 6.0 | 15.0 | 0.00 | 0.14 | 0.08 | 89 | 1014.0 |
| 20260507190040 | 51 | 5 | 8.0 | 17.0 | 0.00 | 0.14 | 0.08 | 89 | 1013.8 |
| 20260507184538 | 51 | 360 | 10.0 | 17.0 | 0.00 | 0.14 | 0.08 | 89 | 1013.5 |
| 20260507184036 | 51 | 360 | 7.0 | 14.0 | 0.00 | 0.14 | 0.08 | 89 | 1013.5 |
| 20260507182033 | 51 | 344 | 4.0 | 15.0 | 0.00 | 0.14 | 0.08 | 89 | 1013.2 |
| 20260507180529 | 52 | 321 | 2.0 | 13.0 | 0.00 | 0.14 | 0.08 | 89 | 1013.1 |
| 20260507180130 | 52 | 42 | 2.0 | 15.0 | 0.00 | 0.14 | 0.08 | 89 | 1013.0 |
| 20260507175528 | 52 | 355 | 8.0 | 19.0 | 0.00 | 0.14 | 0.08 | 89 | 1013.0 |
| 20260507174004 | 52 | 355 | 6.0 | 14.0 | 0.00 | 0.14 | 0.08 | 89 | 1012.9 |
| 20260507173504 | 52 | 5 | 5.0 | 17.0 | 0.00 | 0.14 | 0.08 | 88 | 1013.0 |
| 20260507173006 | 52 | 360 | 3.0 | 17.0 | 0.00 | 0.14 | 0.08 | 88 | 1012.9 |
| 20260507171042 | 52 | 5 | 5.0 | 13.0 | 0.00 | 0.14 | 0.08 | 88 | 1012.6 |
| 20260507170540 | 52 | 11 | 1.0 | 13.0 | 0.00 | 0.14 | 0.08 | 88 | 1012.7 |
| 20260507170039 | 52 | 355 | 3.0 | 13.0 | 0.00 | 0.14 | 0.08 | 88 | 1012.5 |
| 20260507165537 | 53 | 13 | 0.0 | 9.0 | 0.00 | 0.14 | 0.08 | 88 | 1012.4 |
| 20260507165521 | 53 | 13 | 1.0 | 11.0 | 0.00 | 0.14 | 0.08 | 88 | 1012.3 |
| 20260507164509 | 53 | 5 | 2.0 | 12.0 | 0.00 | 0.14 | 0.08 | 88 | 1012.2 |
| 20260507162105 | 53 | 9 | 7.0 | 21.0 | 0.00 | 0.14 | 0.08 | 87 | 1011.9 |
| 20260507124550 | 60 | 355 | 0.0 | 2.0 | 0.00 | 0.14 | 0.08 | 82 | 1011.2 |
| 20260507124048 | 59 | 23 | 0.0 | 1.0 | 0.00 | 0.14 | 0.08 | 82 | 1011.1 |
| 20260507123547 | 59 | 34 | 0.0 | 9.0 | 0.00 | 0.14 | 0.08 | 82 | 1011.2 |
| 20260507123103 | 59 | 19 | 0.0 | 10.0 | 0.00 | 0.14 | 0.08 | 81 | 1011.2 |
| 20260507122547 | 60 | 5 | 2.0 | 11.0 | 0.00 | 0.14 | 0.08 | 82 | 1011.1 |
| 20260507122049 | 60 | 15 | 5.0 | 13.0 | 0.00 | 0.14 | 0.08 | 82 | 1011.0 |
| 20260507121546 | 59 | 36 | 3.0 | 11.0 | 0.00 | 0.14 | 0.08 | 83 | 1011.0 |
| 20260507121046 | 59 | 13 | 5.0 | 11.0 | 0.00 | 0.14 | 0.08 | 83 | 1011.1 |
| 20260507120045 | 59 | 30 | 1.0 | 10.0 | 0.00 | 0.14 | 0.08 | 84 | 1011.0 |
| 20260507115545 | 58 | 36 | 1.0 | 10.0 | 0.00 | 0.14 | 0.08 | 85 | 1011.1 |
| 20260507115044 | 58 | 349 | 2.0 | 9.0 | 0.00 | 0.14 | 0.08 | 85 | 1011.1 |
| 20260507114551 | 58 | 332 | 0.0 | 8.0 | 0.00 | 0.14 | 0.08 | 85 | 1011.1 |
| 20260507114040 | 58 | 52 | 0.0 | 1.0 | 0.00 | 0.14 | 0.08 | 85 | 1011.2 |
| 20260507113540 | 57 | 30 | 0.0 | 1.0 | 0.00 | 0.14 | 0.08 | 85 | 1011.1 |
| 20260507113039 | 57 | 136 | 0.0 | 6.0 | 0.00 | 0.14 | 0.08 | 84 | 1011.2 |
| 20260507112538 | 58 | 65 | 2.0 | 10.0 | 0.00 | 0.14 | 0.08 | 84 | 1011.1 |
| 20260507111024 | 56 | 44 | 1.0 | 12.0 | 0.00 | 0.14 | 0.08 | 88 | 1011.0 |
| 20260507110523 | 56 | 25 | 2.0 | 8.0 | 0.00 | 0.14 | 0.08 | 89 | 1011.0 |
| 20260507094550 | 54 | 304 | 0.0 | 13.0 | 0.00 | 0.14 | 0.08 | 94 | 1010.2 |
| 20260507094048 | 53 | 337 | 4.0 | 13.0 | 0.00 | 0.14 | 0.08 | 95 | 1010.2 |
| 20260507093647 | 53 | 11 | 3.0 | 11.0 | 0.00 | 0.14 | 0.08 | 95 | 1010.1 |
| 20260507092547 | 53 | 351 | 4.0 | 12.0 | 0.00 | 0.14 | 0.08 | 95 | 1010.0 |
| 20260507092047 | 53 | 317 | 1.0 | 12.0 | 0.00 | 0.14 | 0.08 | 96 | 1010.0 |
| 20260507091546 | 53 | 349 | 4.0 | 13.0 | 0.00 | 0.14 | 0.08 | 96 | 1010.0 |
| 20260507091045 | 52 | 355 | 4.0 | 13.0 | 0.00 | 0.14 | 0.08 | 95 | 1010.0 |
| 20260507090545 | 52 | 355 | 4.0 | 11.0 | 0.00 | 0.14 | 0.08 | 96 | 1009.9 |
| 20260507090055 | 52 | 329 | 1.0 | 12.0 | 0.00 | 0.14 | 0.08 | 96 | 1009.9 |
| 20260507085544 | 52 | 322 | 7.0 | 14.0 | 0.00 | 0.14 | 0.08 | 95 | 1009.8 |
| 20260507085043 | 52 | 14 | 5.0 | 14.0 | 0.00 | 0.14 | 0.08 | 96 | 1009.7 |
| 20260507084549 | 52 | 331 | 6.0 | 14.0 | 0.00 | 0.14 | 0.08 | 96 | 1009.6 |
| 20260507084040 | 52 | 360 | 1.0 | 17.0 | 0.00 | 0.14 | 0.08 | 96 | 1009.4 |
| 20260507083641 | 52 | 355 | 2.0 | 17.0 | 0.00 | 0.14 | 0.08 | 96 | 1009.4 |
| 20260507083038 | 51 | 355 | 8.0 | 14.0 | 0.00 | 0.14 | 0.08 | 96 | 1009.3 |
| 20260507082536 | 51 | 325 | 5.0 | 14.0 | 0.00 | 0.14 | 0.08 | 96 | 1009.3 |
| 20260507082036 | 51 | 311 | 6.0 | 17.0 | 0.00 | 0.14 | 0.08 | 96 | 1009.3 |
| 20260507081536 | 51 | 360 | 3.0 | 17.0 | 0.00 | 0.14 | 0.08 | 96 | 1009.3 |
| 20260507081035 | 51 | 5 | 6.0 | 17.0 | 0.00 | 0.14 | 0.08 | 96 | 1009.1 |
| 20260507080535 | 51 | 360 | 7.0 | 18.0 | 0.00 | 0.14 | 0.08 | 95 | 1009.1 |
| 20260507080033 | 51 | 333 | 9.0 | 18.0 | 0.00 | 0.14 | 0.08 | 95 | 1009.0 |
| 20260507075532 | 51 | 324 | 4.0 | 11.0 | 0.00 | 0.14 | 0.08 | 96 | 1009.1 |
| 20260507075031 | 51 | 317 | 4.0 | 11.0 | 0.00 | 0.14 | 0.08 | 96 | 1009.0 |
| 20260507074530 | 51 | 323 | 4.0 | 17.0 | 0.01 | 0.14 | 0.08 | 95 | 1009.0 |
| 20260507074028 | 51 | 340 | 8.0 | 17.0 | 0.01 | 0.14 | 0.08 | 96 | 1009.0 |
| 20260507073528 | 51 | 326 | 6.0 | 15.0 | 0.01 | 0.14 | 0.08 | 95 | 1009.0 |
| 20260507073030 | 51 | 338 | 6.0 | 15.0 | 0.01 | 0.14 | 0.08 | 95 | 1008.8 |
| 20260507072528 | 51 | 329 | 7.0 | 16.0 | 0.01 | 0.14 | 0.08 | 95 | 1008.8 |
| 20260507072026 | 52 | 330 | 9.0 | 15.0 | 0.01 | 0.14 | 0.08 | 95 | 1008.7 |
| 20260507071531 | 52 | 355 | 5.0 | 14.0 | 0.01 | 0.14 | 0.08 | 95 | 1008.7 |
| 20260507071027 | 52 | 360 | 6.0 | 16.0 | 0.01 | 0.14 | 0.08 | 95 | 1008.5 |
| 20260507070522 | 53 | 324 | 8.0 | 16.0 | 0.01 | 0.14 | 0.08 | 95 | 1008.5 |
| 20260507070020 | 53 | 5 | 1.0 | 12.0 | 0.01 | 0.14 | 0.08 | 96 | 1008.3 |
| 20260507065519 | 53 | 5 | 2.0 | 16.0 | 0.01 | 0.14 | 0.08 | 96 | 1008.2 |
| 20260507065018 | 53 | 351 | 9.0 | 16.0 | 0.01 | 0.14 | 0.08 | 95 | 1008.1 |
| 20260507064528 | 53 | 321 | 3.0 | 15.0 | 0.01 | 0.13 | 0.07 | 95 | 1008.1 |
| 20260507064021 | 53 | 46 | 5.0 | 15.0 | 0.01 | 0.13 | 0.07 | 96 | 1008.0 |
| 20260507063514 | 53 | 349 | 3.0 | 13.0 | 0.01 | 0.13 | 0.07 | 95 | 1007.9 |
| 20260507063012 | 53 | 355 | 5.0 | 16.0 | 0.02 | 0.13 | 0.07 | 95 | 1007.7 |
| 20260507062612 | 53 | 351 | 8.0 | 17.0 | 0.02 | 0.13 | 0.07 | 95 | 1007.7 |